KAC1015 OKKK-OEMA

Flight info

Callsign KAC1015
Flight time N/A
Altitude 36000
Route DEKOB P517 KSB B417 GAS G674 EMURI
Aircraft A319/M-SDE3FGHIRWY/LB1

Departure

Time N/A
Airport Kuwait International Airport (OKKK)

Arrival

Time 2026-04-28 14:19
Airport Prince Mohammad Bin Abdulaziz Airport (OEMA)
Time Latitude Longitude Altitude Speed Heading
2026-04-28 13:01 25.63559 45.90441 35851 ft 392 kts 277°
2026-04-28 13:02 25.64420 45.87541 35852 ft 401 kts 289°
2026-04-28 13:02 25.67999 45.82629 35858 ft 430 kts 314°
2026-04-28 13:02 25.70595 45.80863 35855 ft 446 kts 326°
2026-04-28 13:03 25.72535 45.80032 35860 ft 457 kts 334°
2026-04-28 13:03 25.75729 45.79345 35865 ft 474 kts 346°
2026-04-28 13:03 25.80210 45.79586 35859 ft 496 kts
2026-04-28 13:04 25.85733 45.81786 35853 ft 519 kts 23°
2026-04-28 13:04 25.88728 45.84054 35855 ft 529 kts 36°
2026-04-28 13:04 25.91378 45.86933 35863 ft 535 kts 43°
2026-04-28 13:05 25.96773 45.92596 35860 ft 529 kts 33°
2026-04-28 13:05 26.02780 45.97213 35867 ft 525 kts 26°
2026-04-28 13:06 26.09017 46.01479 35870 ft 525 kts 25°
2026-04-28 13:06 26.15232 46.05686 35881 ft 526 kts 25°
2026-04-28 13:07 26.21513 46.09876 35872 ft 521 kts 19°
2026-04-28 13:07 26.24836 46.11349 35870 ft 508 kts
2026-04-28 13:07 26.28250 46.12084 35869 ft 493 kts 355°
2026-04-28 13:07 26.31631 46.12113 35860 ft 479 kts 345°
2026-04-28 13:08 26.34839 46.11524 35857 ft 465 kts 335°
2026-04-28 13:08 26.37860 46.10383 35855 ft 451 kts 326°
2026-04-28 13:08 26.40611 46.08757 35855 ft 438 kts 317°
2026-04-28 13:08 26.42993 46.06765 35855 ft 427 kts 309°
2026-04-28 13:09 26.45053 46.04420 35849 ft 417 kts 301°
2026-04-28 13:09 26.48028 45.99045 35850 ft 400 kts 286°
2026-04-28 13:10 26.49466 45.93163 35856 ft 389 kts 272°
2026-04-28 13:10 26.49424 45.87236 35855 ft 383 kts 261°
2026-04-28 13:11 26.48900 45.81294 35855 ft 383 kts 262°
2026-04-28 13:11 26.48396 45.75398 35855 ft 383 kts 262°
2026-04-28 13:12 26.47882 45.69473 35851 ft 383 kts 262°
2026-04-28 13:12 26.47362 45.63539 35845 ft 383 kts 262°
2026-04-28 13:13 26.46844 45.57651 35855 ft 382 kts 262°
2026-04-28 13:13 26.46321 45.51745 35851 ft 382 kts 262°
2026-04-28 13:14 26.45797 45.45856 35859 ft 383 kts 262°
2026-04-28 13:14 26.45266 45.39922 35857 ft 382 kts 262°
2026-04-28 13:15 26.44738 45.34040 35849 ft 382 kts 262°
2026-04-28 13:15 26.44207 45.28152 35858 ft 382 kts 262°
2026-04-28 13:16 26.43670 45.22231 35854 ft 381 kts 262°
2026-04-28 13:16 26.43137 45.16380 35848 ft 381 kts 262°
2026-04-28 13:17 26.42595 45.10480 35854 ft 380 kts 262°
2026-04-28 13:17 26.42058 45.04626 35852 ft 380 kts 262°
2026-04-28 13:18 26.41518 44.98746 35859 ft 380 kts 261°
2026-04-28 13:18 26.40973 44.92893 35858 ft 380 kts 261°
2026-04-28 13:19 26.40428 44.87051 35858 ft 380 kts 261°
2026-04-28 13:19 26.39880 44.81192 35854 ft 380 kts 261°
2026-04-28 13:20 26.39331 44.75357 35854 ft 380 kts 261°
2026-04-28 13:20 26.38778 44.69507 35857 ft 380 kts 261°
2026-04-28 13:21 26.38220 44.63633 35856 ft 380 kts 261°
2026-04-28 13:21 26.37663 44.57792 35859 ft 380 kts 261°
2026-04-28 13:22 26.37098 44.51902 35855 ft 380 kts 261°
2026-04-28 13:22 26.36537 44.46059 35847 ft 380 kts 261°
2026-04-28 13:23 26.35973 44.40224 35858 ft 380 kts 261°
2026-04-28 13:23 26.35407 44.34382 35850 ft 380 kts 261°
2026-04-28 13:24 26.34833 44.28493 35844 ft 381 kts 261°
2026-04-28 13:24 26.34262 44.22648 35863 ft 381 kts 261°
2026-04-28 13:25 26.33683 44.16780 35862 ft 381 kts 261°
2026-04-28 13:25 26.33103 44.10890 35866 ft 382 kts 261°
2026-04-28 13:26 26.32522 44.05024 35866 ft 382 kts 261°
2026-04-28 13:26 26.31934 43.99127 35867 ft 382 kts 261°
2026-04-28 13:27 26.31345 43.93221 35869 ft 383 kts 261°
2026-04-28 13:27 26.30756 43.87354 35863 ft 383 kts 261°
2026-04-28 13:28 26.30030 43.81460 35875 ft 382 kts 257°
2026-04-28 13:28 26.28672 43.75778 35878 ft 381 kts 251°
2026-04-28 13:29 26.26663 43.70317 35869 ft 381 kts 246°
2026-04-28 13:29 26.24455 43.64943 35877 ft 381 kts 246°
2026-04-28 13:30 26.22262 43.59586 35867 ft 381 kts 246°
2026-04-28 13:30 26.20049 43.54201 35867 ft 380 kts 246°
2026-04-28 13:31 26.16742 43.46179 35859 ft 380 kts 246°
2026-04-28 13:31 26.14548 43.40863 35865 ft 379 kts 246°
2026-04-28 13:32 26.12336 43.35509 35853 ft 379 kts 246°
2026-04-28 13:32 26.10142 43.30210 35862 ft 378 kts 246°
2026-04-28 13:33 26.07941 43.24896 35856 ft 377 kts 246°
2026-04-28 13:33 26.05750 43.19615 35867 ft 377 kts 246°
2026-04-28 13:34 26.03548 43.14314 35865 ft 377 kts 246°
2026-04-28 13:34 26.01353 43.09037 35867 ft 377 kts 246°
2026-04-28 13:35 25.99148 43.03744 35863 ft 377 kts 246°
2026-04-28 13:35 25.96936 42.98441 35849 ft 379 kts 246°
2026-04-28 13:36 25.94717 42.93127 35855 ft 380 kts 246°
2026-04-28 13:36 25.92490 42.87800 35870 ft 381 kts 246°
2026-04-28 13:37 25.90260 42.82475 35882 ft 382 kts 246°
2026-04-28 13:37 25.88018 42.77127 35887 ft 383 kts 246°
2026-04-28 13:38 25.85761 42.71745 35895 ft 384 kts 246°
2026-04-28 13:38 25.83506 42.66381 35900 ft 385 kts 246°
2026-04-28 13:39 25.81244 42.61005 35909 ft 385 kts 246°
2026-04-28 13:39 25.78976 42.55622 35918 ft 385 kts 246°
2026-04-28 13:40 25.76713 42.50257 35916 ft 385 kts 246°
2026-04-28 13:40 25.74451 42.44895 35913 ft 384 kts 246°
2026-04-28 13:41 25.72183 42.39534 35910 ft 384 kts 246°
2026-04-28 13:41 25.69921 42.34191 35907 ft 383 kts 246°
2026-04-28 13:42 25.67649 42.28833 35910 ft 383 kts 246°
2026-04-28 13:42 25.65380 42.23487 35904 ft 382 kts 246°
2026-04-28 13:43 25.63130 42.18198 35899 ft 381 kts 246°
2026-04-28 13:43 25.60881 42.12912 35901 ft 380 kts 246°
2026-04-28 13:44 25.58621 42.07608 35896 ft 380 kts 246°
2026-04-28 13:44 25.56367 42.02325 35895 ft 379 kts 246°
2026-04-28 13:45 25.54100 41.97017 35894 ft 379 kts 246°
2026-04-28 13:45 25.51859 41.91776 35889 ft 380 kts 246°
2026-04-28 13:46 25.49585 41.86467 35892 ft 380 kts 246°
2026-04-28 13:46 25.47325 41.81196 35897 ft 381 kts 246°
2026-04-28 13:47 25.45052 41.75902 35902 ft 382 kts 246°
2026-04-28 13:47 25.42763 41.70575 35901 ft 382 kts 246°
2026-04-28 13:48 25.40479 41.65265 35906 ft 383 kts 246°
2026-04-28 13:48 25.38189 41.59950 35919 ft 384 kts 246°
2026-04-28 13:49 25.35887 41.54612 35922 ft 385 kts 246°
2026-04-28 13:49 25.33589 41.49292 35928 ft 386 kts 246°
2026-04-28 13:50 25.31276 41.43946 35930 ft 386 kts 246°
2026-04-28 13:50 25.28944 41.38561 35926 ft 386 kts 246°
2026-04-28 13:51 25.26638 41.33239 35927 ft 387 kts 246°
2026-04-28 13:51 25.24306 41.27860 35927 ft 387 kts 246°
2026-04-28 13:52 25.21989 41.22533 35925 ft 386 kts 246°
2026-04-28 13:52 25.19658 41.17177 35909 ft 386 kts 245°
2026-04-28 13:53 25.17329 41.11829 35584 ft 385 kts 245°
2026-04-28 13:53 25.16162 41.09155 34794 ft 388 kts 245°
2026-04-28 13:53 25.14995 41.06477 33574 ft 395 kts 245°
2026-04-28 13:54 25.13787 41.03709 32138 ft 401 kts 246°
2026-04-28 13:54 25.12579 41.00948 31119 ft 395 kts 246°
2026-04-28 13:54 25.11393 40.98294 30457 ft 383 kts 243°
2026-04-28 13:54 25.10002 40.95887 30213 ft 364 kts 237°
2026-04-28 13:55 25.08417 40.93756 29537 ft 357 kts 231°
2026-04-28 13:55 25.06612 40.91881 28962 ft 357 kts 225°
2026-04-28 13:55 25.05277 40.90752 28646 ft 366 kts 221°
2026-04-28 13:55 25.03170 40.89126 28034 ft 367 kts 221°
2026-04-28 13:56 25.00424 40.86995 27240 ft 363 kts 221°
2026-04-28 13:56 24.98357 40.85390 26643 ft 360 kts 220°
2026-04-28 13:56 24.96988 40.84328 26249 ft 359 kts 220°
2026-04-28 13:56 24.94978 40.82767 25661 ft 358 kts 220°
2026-04-28 13:57 24.92928 40.81176 25068 ft 356 kts 220°
2026-04-28 13:57 24.90903 40.79608 24463 ft 354 kts 219°
2026-04-28 13:57 24.88911 40.78066 23872 ft 353 kts 219°
2026-04-28 13:57 24.86899 40.76509 23262 ft 351 kts 219°
2026-04-28 13:58 24.84919 40.74980 22674 ft 349 kts 218°
2026-04-28 13:58 24.82931 40.73447 22061 ft 345 kts 218°
2026-04-28 13:58 24.80993 40.71952 21460 ft 343 kts 218°
2026-04-28 13:58 24.79042 40.70447 20865 ft 341 kts 218°
2026-04-28 13:59 24.77100 40.68951 20253 ft 339 kts 218°
2026-04-28 13:59 24.75179 40.67473 19651 ft 336 kts 218°
2026-04-28 13:59 24.73265 40.66000 19048 ft 334 kts 218°
2026-04-28 13:59 24.71362 40.64536 18449 ft 332 kts 218°
2026-04-28 14:00 24.69473 40.63079 17858 ft 331 kts 220°
2026-04-28 14:00 24.67865 40.61353 17372 ft 325 kts 234°
2026-04-28 14:00 24.66760 40.59200 16900 ft 320 kts 249°
2026-04-28 14:00 24.66254 40.56856 16674 ft 320 kts 261°
2026-04-28 14:01 24.65948 40.54415 16536 ft 323 kts 261°
2026-04-28 14:01 24.65627 40.51977 16396 ft 321 kts 261°
2026-04-28 14:01 24.65303 40.49544 16243 ft 320 kts 261°
2026-04-28 14:01 24.64985 40.47146 16099 ft 321 kts 261°
2026-04-28 14:02 24.64665 40.44716 15961 ft 319 kts 261°
2026-04-28 14:02 24.64345 40.42289 15819 ft 318 kts 261°
2026-04-28 14:02 24.64030 40.39892 15671 ft 320 kts 261°
2026-04-28 14:02 24.63714 40.37489 15522 ft 319 kts 260°
2026-04-28 14:03 24.63396 40.35071 15379 ft 318 kts 260°
2026-04-28 14:03 24.63077 40.32654 15232 ft 317 kts 260°
2026-04-28 14:03 24.62760 40.30262 15084 ft 318 kts 260°
2026-04-28 14:03 24.62442 40.27851 14933 ft 318 kts 260°
2026-04-28 14:04 24.62123 40.25444 14796 ft 316 kts 260°
2026-04-28 14:04 24.61808 40.23060 14657 ft 316 kts 260°
2026-04-28 14:04 24.61494 40.20695 14508 ft 317 kts 260°
2026-04-28 14:04 24.61174 40.18296 14354 ft 316 kts 260°
2026-04-28 14:05 24.60856 40.15909 14219 ft 315 kts 260°
2026-04-28 14:05 24.60543 40.13549 14078 ft 314 kts 260°
2026-04-28 14:05 24.59915 40.11269 13931 ft 312 kts 240°
2026-04-28 14:05 24.58506 40.09442 13698 ft 316 kts 218°
2026-04-28 14:06 24.56596 40.08268 13458 ft 310 kts 208°
2026-04-28 14:06 24.54704 40.07280 13315 ft 300 kts 207°
2026-04-28 14:06 24.52800 40.06298 13217 ft 304 kts 207°
2026-04-28 14:06 24.50882 40.05299 13117 ft 304 kts 207°
2026-04-28 14:07 24.48974 40.04297 13024 ft 303 kts 208°
2026-04-28 14:07 24.47087 40.03299 12934 ft 302 kts 208°
2026-04-28 14:07 24.45203 40.02302 12839 ft 302 kts 208°
2026-04-28 14:07 24.43307 40.01299 12735 ft 302 kts 208°
2026-04-28 14:08 24.41408 40.00293 12650 ft 302 kts 208°
2026-04-28 14:08 24.39543 39.99308 12564 ft 301 kts 208°
2026-04-28 14:08 24.37652 39.98309 12463 ft 301 kts 208°
2026-04-28 14:08 24.35754 39.97303 12362 ft 301 kts 208°
2026-04-28 14:09 24.33865 39.96300 12278 ft 299 kts 208°
2026-04-28 14:09 24.32009 39.95319 12194 ft 300 kts 208°
2026-04-28 14:09 24.30116 39.94319 12054 ft 301 kts 207°
2026-04-28 14:09 24.28250 39.93335 11800 ft 301 kts 207°
2026-04-28 14:10 24.26363 39.92342 11487 ft 297 kts 208°
2026-04-28 14:10 24.24501 39.91360 11129 ft 296 kts 207°
2026-04-28 14:10 24.22643 39.90375 10745 ft 293 kts 210°
2026-04-28 14:10 24.21114 39.89047 10369 ft 280 kts 233°
2026-04-28 14:11 24.20258 39.87182 10005 ft 268 kts 256°
2026-04-28 14:11 24.19902 39.85201 9637 ft 260 kts 258°
2026-04-28 14:11 24.19573 39.83297 9258 ft 254 kts 258°
2026-04-28 14:11 24.19296 39.81409 8884 ft 247 kts 269°
2026-04-28 14:12 24.19707 39.79634 8520 ft 238 kts 298°
2026-04-28 14:12 24.20820 39.78372 8166 ft 233 kts 327°
2026-04-28 14:12 24.22357 39.77812 7781 ft 231 kts 347°
2026-04-28 14:12 24.23913 39.77504 7489 ft 223 kts 346°
2026-04-28 14:13 24.25422 39.77188 7212 ft 224 kts 345°
2026-04-28 14:13 24.26924 39.76866 6932 ft 217 kts 345°
2026-04-28 14:13 24.28422 39.76544 6620 ft 220 kts 345°
2026-04-28 14:13 24.29888 39.76232 6287 ft 213 kts 345°
2026-04-28 14:14 24.31322 39.75929 5962 ft 205 kts 345°
2026-04-28 14:14 24.32701 39.75634 5636 ft 199 kts 345°
2026-04-28 14:14 24.34042 39.75350 5294 ft 192 kts 345°
2026-04-28 14:14 24.35350 39.75072 4969 ft 191 kts 345°
2026-04-28 14:15 24.36632 39.74798 4697 ft 188 kts 345°
2026-04-28 14:15 24.37884 39.74532 4503 ft 175 kts 345°
2026-04-28 14:15 24.39077 39.74279 4521 ft 180 kts 345°
2026-04-28 14:15 24.40328 39.74011 4500 ft 186 kts 345°
2026-04-28 14:16 24.41605 39.73742 4505 ft 192 kts 345°
2026-04-28 14:16 24.42928 39.73459 4299 ft 187 kts 345°
2026-04-28 14:16 24.44183 39.73192 4021 ft 187 kts 345°
2026-04-28 14:16 24.45465 39.72917 3786 ft 191 kts 346°
2026-04-28 14:17 24.46754 39.72651 3512 ft 183 kts 347°
2026-04-28 14:17 24.48026 39.72380 3257 ft 186 kts 345°
2026-04-28 14:17 24.49268 39.72109 3016 ft 183 kts 345°
2026-04-28 14:17 24.50521 39.71841 2772 ft 180 kts 346°
2026-04-28 14:18 24.51712 39.71590 2528 ft 169 kts 346°
2026-04-28 14:18 24.52863 39.71344 2323 ft 167 kts 346°
2026-04-28 14:18 24.53980 39.71103 2116 ft 153 kts 351°
2026-04-28 14:18 24.54847 39.70926 2118 ft 91 kts 348°
2026-04-28 14:19 24.55310 39.70822 2120 ft 62 kts 349°
2026-04-28 14:19 24.55722 39.70736 2123 ft 60 kts 349°
2026-04-28 14:19 24.56126 39.70709 2130 ft 57 kts 10°
2026-04-28 14:19 24.56360 39.70787 2139 ft 16 kts 322°
2026-04-28 14:20 24.56406 39.70815 2138 ft 9 kts 59°
2026-04-28 14:20 24.56438 39.70884 2138 ft 12 kts 76°
2026-04-28 14:20 24.56413 39.70973 2139 ft 14 kts 146°
2026-04-28 14:20 24.56315 39.71007 2139 ft 16 kts 168°
2026-04-28 14:21 24.56192 39.71031 2140 ft 19 kts 172°
2026-04-28 14:21 24.56051 39.71055 2141 ft 22 kts 171°
2026-04-28 14:21 24.55906 39.71085 2139 ft 19 kts 168°
2026-04-28 14:21 24.55776 39.71110 2140 ft 16 kts 172°
2026-04-28 14:22 24.55732 39.71124 2140 ft 2 kts 137°
2026-04-28 14:22 24.55723 39.71141 2141 ft 2 kts 101°
2026-04-28 14:22 24.55724 39.71147 2141 ft 0 kts 79°
2026-04-28 14:22 24.55725 39.71155 2141 ft 1 kts 79°
2026-04-28 14:23 24.55728 39.71172 2139 ft 3 kts 79°
2026-04-28 14:23 24.55734 39.71207 2141 ft 6 kts 80°
2026-04-28 14:23 24.55737 39.71229 2141 ft 1 kts 80°
2026-04-28 14:23 24.55738 39.71231 2141 ft 0 kts 80°
2026-04-28 14:24 24.55738 39.71232 2141 ft 0 kts 80°